timestamp,wind_dir_avg,wind_spd_avg,wind_spd_max_dir,wind_spd_gust,battery_voltage,lat,long
2023-05-14 00:04:00+00:00,240.0,5.84,232.0,7.4,12.57,47.59359,-54.27349
2023-05-14 00:14:00+00:00,218.0,3.64,213.0,4.45,12.33,47.59359,-54.27349
2023-05-14 00:24:00+00:00,237.0,2.92,241.0,4.39,12.33,47.59359,-54.27349
2023-05-14 00:34:00+00:00,233.0,3.93,231.0,5.23,12.33,47.59359,-54.27349
2023-05-14 00:44:00+00:00,149.0,10.28,150.0,11.96,12.33,47.59359,-54.27349
2023-05-14 00:54:00+00:00,147.0,10.26,146.0,11.05,12.33,47.59359,-54.27349
2023-05-14 01:04:00+00:00,152.0,11.73,152.0,13.37,12.33,47.59359,-54.27349
2023-05-14 01:14:00+00:00,151.0,12.24,152.0,13.34,12.33,47.59359,-54.27349
2023-05-14 01:24:00+00:00,172.0,10.7,163.0,12.3,12.33,47.59359,-54.27349
2023-05-14 01:34:00+00:00,166.0,10.39,156.0,13.51,12.33,47.59359,-54.27349
2023-05-14 01:44:00+00:00,182.0,10.0,181.0,11.36,12.33,47.59359,-54.27349
2023-05-14 01:54:00+00:00,188.0,10.54,191.0,12.67,12.33,47.59359,-54.27349
2023-05-14 02:04:00+00:00,187.0,11.22,191.0,12.42,12.33,47.59359,-54.27349
2023-05-14 02:14:00+00:00,195.0,9.79,192.0,11.38,12.33,47.59359,-54.27349
2023-05-14 02:24:00+00:00,200.0,9.48,204.0,10.71,12.33,47.59359,-54.27349
2023-05-14 02:34:00+00:00,205.0,8.86,205.0,9.8,12.33,47.59359,-54.27349
2023-05-14 02:44:00+00:00,202.0,9.39,201.0,10.6,12.33,47.59359,-54.27349
2023-05-14 02:54:00+00:00,195.0,10.59,195.0,11.91,12.33,47.59359,-54.27349
2023-05-14 03:04:00+00:00,201.0,11.38,212.0,13.85,12.33,47.59359,-54.27349
2023-05-14 03:14:00+00:00,211.0,11.93,211.0,15.07,12.25,47.59359,-54.27349
2023-05-14 03:24:00+00:00,220.0,11.08,216.0,13.17,12.25,47.59359,-54.27349
2023-05-14 03:34:00+00:00,219.0,11.55,216.0,13.19,12.25,47.59359,-54.27349
2023-05-14 03:44:00+00:00,216.0,12.67,215.0,14.1,12.25,47.59359,-54.27349
2023-05-14 03:54:00+00:00,214.0,10.89,215.0,11.65,12.25,47.59359,-54.27349
2023-05-14 04:04:00+00:00,208.0,8.38,208.0,9.24,12.25,47.59359,-54.27349
2023-05-14 04:14:00+00:00,204.0,7.05,203.0,7.9,12.25,47.59359,-54.27349
2023-05-14 04:24:00+00:00,174.0,5.0,176.0,5.63,12.25,47.59359,-54.27349
2023-05-14 04:34:00+00:00,216.0,0.93,205.0,1.35,12.25,47.59359,-54.27349
2023-05-14 04:44:00+00:00,242.0,5.9,244.0,6.48,12.25,47.59359,-54.27349
2023-05-14 04:54:00+00:00,247.0,6.14,253.0,6.7,12.25,47.59359,-54.27349
2023-05-14 05:04:00+00:00,228.0,7.64,229.0,8.79,12.25,47.59359,-54.27349
2023-05-14 05:14:00+00:00,217.0,6.81,216.0,7.86,12.25,47.59359,-54.27349
2023-05-14 05:24:00+00:00,208.0,9.69,203.0,11.06,12.25,47.59359,-54.27349
2023-05-14 05:34:00+00:00,210.0,10.04,211.0,12.07,12.25,47.59359,-54.27349
2023-05-14 05:44:00+00:00,197.0,10.78,196.0,12.02,12.25,47.59359,-54.27349
2023-05-14 05:54:00+00:00,203.0,8.12,204.0,9.43,12.25,47.59359,-54.27349
2023-05-14 06:04:00+00:00,204.0,8.23,209.0,9.18,12.25,47.59359,-54.27349
2023-05-14 06:14:00+00:00,212.0,7.51,213.0,8.54,12.17,47.59359,-54.27349
2023-05-14 06:24:00+00:00,221.0,4.85,217.0,6.08,12.17,47.59359,-54.27349
2023-05-14 06:34:00+00:00,210.0,3.85,211.0,4.3,12.17,47.59359,-54.27349
2023-05-14 06:44:00+00:00,203.0,4.11,198.0,5.22,12.17,47.59359,-54.27349
2023-05-14 06:54:00+00:00,201.0,3.18,200.0,3.49,12.17,47.59359,-54.27349
2023-05-14 07:04:00+00:00,199.0,3.74,201.0,4.19,12.17,47.59359,-54.27349
2023-05-14 07:14:01+00:00,273.0,2.07,277.0,2.42,12.17,47.59359,-54.27349
2023-05-14 07:24:01+00:00,240.0,1.29,244.0,1.59,12.17,47.59359,-54.27349
2023-05-14 07:34:01+00:00,209.0,1.48,202.0,1.69,12.17,47.59359,-54.27349
2023-05-14 07:44:01+00:00,183.0,3.03,184.0,3.33,12.17,47.59359,-54.27349
2023-05-14 07:54:01+00:00,149.0,4.36,148.0,4.92,12.17,47.59359,-54.27349
2023-05-14 08:04:01+00:00,187.0,2.81,183.0,3.36,12.17,47.59359,-54.27349
2023-05-14 08:14:00+00:00,200.0,2.43,204.0,2.74,12.09,47.59359,-54.27349
2023-05-14 08:24:00+00:00,156.0,1.02,158.0,1.25,12.09,47.59359,-54.27349
2023-05-14 08:34:00+00:00,181.0,1.55,181.0,1.59,12.09,47.59359,-54.27349
2023-05-14 08:44:00+00:00,222.0,0.83,218.0,0.93,12.09,47.59359,-54.27349
2023-05-14 08:54:00+00:00,246.0,0.09,268.0,0.15,12.09,47.59359,-54.27349
2023-05-14 09:04:00+00:00,40.0,0.75,47.0,1.01,12.09,47.59359,-54.27349
2023-05-14 09:14:00+00:00,29.0,2.8,27.0,2.89,12.09,47.59359,-54.27349
2023-05-14 09:24:00+00:00,290.0,1.79,288.0,2.26,12.09,47.59359,-54.27349
2023-05-14 09:34:00+00:00,322.0,2.9,314.0,3.28,12.09,47.59359,-54.27349
2023-05-14 09:44:00+00:00,313.0,4.2,295.0,6.89,12.09,47.59359,-54.27349
2023-05-14 09:54:00+00:00,340.0,0.78,344.0,1.16,12.09,47.59359,-54.27349
2023-05-14 10:04:00+00:00,7.0,2.03,5.0,3.2,12.09,47.59359,-54.27349
2023-05-14 10:14:00+00:00,11.0,1.76,10.0,2.06,12.09,47.59359,-54.27349
2023-05-14 10:24:00+00:00,61.0,6.08,61.0,6.34,12.09,47.59359,-54.27349
2023-05-14 10:34:00+00:00,6.0,2.0,16.0,2.27,12.09,47.59359,-54.27349
2023-05-14 10:44:00+00:00,60.0,4.81,64.0,5.54,12.09,47.59359,-54.27349
2023-05-14 10:54:00+00:00,72.0,4.92,69.0,5.55,12.09,47.59359,-54.27349
2023-05-14 11:04:00+00:00,64.0,3.33,67.0,3.76,12.09,47.59359,-54.27349
2023-05-14 11:14:01+00:00,97.0,3.17,96.0,5.6,12.41,47.59359,-54.27349
2023-05-14 11:24:01+00:00,94.0,3.94,100.0,5.91,12.41,47.59359,-54.27349
2023-05-14 11:34:01+00:00,89.0,5.48,94.0,5.95,12.41,47.59359,-54.27349
2023-05-14 11:44:01+00:00,201.0,5.6,222.0,7.47,12.41,47.59359,-54.27349
2023-05-14 11:54:01+00:00,209.0,7.84,218.0,8.89,12.41,47.59359,-54.27349
2023-05-14 12:04:01+00:00,214.0,8.77,221.0,10.39,12.41,47.59359,-54.27349
2023-05-14 12:14:00+00:00,227.0,6.8,226.0,7.61,12.41,47.59359,-54.27349
2023-05-14 12:24:00+00:00,239.0,5.6,243.0,6.73,12.41,47.59359,-54.27349
2023-05-14 12:34:00+00:00,269.0,3.64,271.0,3.99,12.41,47.59359,-54.27349
2023-05-14 12:44:00+00:00,230.0,2.26,230.0,2.47,12.41,47.59359,-54.27349
2023-05-14 12:54:00+00:00,223.0,3.44,224.0,4.08,12.41,47.59359,-54.27349
2023-05-14 13:04:00+00:00,223.0,5.46,224.0,5.96,12.41,47.59359,-54.27349
2023-05-14 13:14:01+00:00,219.0,7.49,217.0,8.35,13.37,47.59359,-54.27349
2023-05-14 13:24:01+00:00,266.0,5.8,270.0,8.46,13.37,47.59359,-54.27349
2023-05-14 13:34:01+00:00,268.0,9.23,269.0,13.32,13.37,47.59359,-54.27349
2023-05-14 13:44:01+00:00,263.0,7.99,266.0,11.72,13.37,47.59359,-54.27349
2023-05-14 13:54:01+00:00,262.0,9.33,266.0,13.73,13.37,47.59359,-54.27349
2023-05-14 14:04:01+00:00,271.0,8.09,273.0,13.03,13.37,47.59359,-54.27349
2023-05-14 14:14:01+00:00,285.0,7.23,281.0,7.93,13.44,47.59359,-54.27349
2023-05-14 14:24:01+00:00,258.0,6.9,258.0,7.4,13.44,47.59359,-54.27349
2023-05-14 14:34:01+00:00,256.0,9.79,259.0,13.77,13.44,47.59359,-54.27349
2023-05-14 14:44:01+00:00,265.0,7.54,269.0,10.08,13.44,47.59359,-54.27349
2023-05-14 14:54:01+00:00,265.0,13.16,268.0,14.81,13.44,47.59359,-54.27349
2023-05-14 15:04:01+00:00,256.0,11.58,255.0,14.32,13.44,47.59359,-54.27349
2023-05-14 15:14:01+00:00,250.0,10.39,248.0,14.43,13.6,47.59359,-54.27349
2023-05-14 15:24:01+00:00,256.0,7.97,253.0,8.54,13.6,47.59359,-54.27349
2023-05-14 15:34:01+00:00,264.0,13.31,263.0,14.81,13.6,47.59359,-54.27349
2023-05-14 15:44:01+00:00,255.0,7.47,253.0,7.87,13.6,47.59359,-54.27349
2023-05-14 15:54:01+00:00,241.0,6.46,251.0,7.55,13.6,47.59359,-54.27349
2023-05-14 16:04:01+00:00,221.0,6.95,231.0,9.4,13.6,47.59359,-54.27349
2023-05-14 16:14:01+00:00,227.0,7.32,228.0,9.65,13.68,47.59359,-54.27349
2023-05-14 16:24:01+00:00,231.0,7.87,235.0,9.41,13.68,47.59359,-54.27349
2023-05-14 16:34:01+00:00,228.0,8.27,228.0,10.16,13.68,47.59359,-54.27349
2023-05-14 16:44:01+00:00,220.0,8.43,229.0,10.57,13.68,47.59359,-54.27349
2023-05-14 16:54:01+00:00,239.0,8.33,244.0,10.6,13.68,47.59359,-54.27349
2023-05-14 17:04:01+00:00,241.0,14.23,243.0,15.76,13.68,47.59359,-54.27349
2023-05-14 17:14:00+00:00,251.0,13.76,251.0,15.52,13.68,47.59359,-54.27349
2023-05-14 17:24:00+00:00,245.0,9.04,253.0,13.79,13.68,47.59359,-54.27349
2023-05-14 17:34:00+00:00,247.0,10.03,248.0,14.31,13.68,47.59359,-54.27349
2023-05-14 17:44:00+00:00,252.0,12.6,254.0,15.19,13.68,47.59359,-54.27349
2023-05-14 17:54:00+00:00,257.0,13.89,253.0,15.23,13.68,47.59359,-54.27349
2023-05-14 18:04:00+00:00,252.0,14.06,248.0,15.79,13.68,47.59359,-54.27349
2023-05-14 18:14:00+00:00,259.0,13.9,258.0,15.04,13.6,47.59359,-54.27349
2023-05-14 18:24:00+00:00,264.0,13.83,264.0,14.93,13.6,47.59359,-54.27349
2023-05-14 18:34:00+00:00,254.0,12.65,254.0,14.44,13.6,47.59359,-54.27349
2023-05-14 18:44:00+00:00,251.0,13.72,258.0,17.22,13.6,47.59359,-54.27349
2023-05-14 18:54:00+00:00,254.0,13.92,253.0,15.15,13.6,47.59359,-54.27349
2023-05-14 19:04:00+00:00,249.0,13.89,251.0,15.58,13.6,47.59359,-54.27349
2023-05-14 19:14:00+00:00,255.0,13.22,258.0,15.08,13.68,47.59359,-54.27349
2023-05-14 19:24:00+00:00,253.0,13.16,246.0,15.24,13.68,47.59359,-54.27349
2023-05-14 19:34:00+00:00,256.0,13.14,260.0,14.83,13.68,47.59359,-54.27349
2023-05-14 19:44:00+00:00,256.0,13.59,255.0,15.08,13.68,47.59359,-54.27349
2023-05-14 19:54:00+00:00,256.0,13.54,257.0,15.37,13.68,47.59359,-54.27349
2023-05-14 20:04:00+00:00,258.0,12.84,257.0,14.82,13.68,47.59359,-54.27349
2023-05-14 20:14:00+00:00,255.0,13.37,254.0,15.36,13.68,47.59359,-54.27349
2023-05-14 20:24:00+00:00,256.0,13.42,258.0,15.15,13.68,47.59359,-54.27349
2023-05-14 20:34:00+00:00,256.0,13.94,255.0,15.14,13.68,47.59359,-54.27349
2023-05-14 20:44:00+00:00,250.0,13.26,250.0,15.36,13.68,47.59359,-54.27349
2023-05-14 20:54:00+00:00,256.0,13.97,254.0,15.1,13.68,47.59359,-54.27349
2023-05-14 21:04:00+00:00,257.0,13.86,253.0,15.4,13.68,47.59359,-54.27349
2023-05-14 21:14:00+00:00,255.0,11.94,256.0,14.4,13.68,47.59359,-54.27349
2023-05-14 21:24:00+00:00,247.0,9.5,246.0,14.48,13.68,47.59359,-54.27349
2023-05-14 21:34:00+00:00,251.0,14.56,248.0,15.79,13.68,47.59359,-54.27349
2023-05-14 21:44:00+00:00,242.0,9.76,250.0,13.87,13.68,47.59359,-54.27349
2023-05-14 21:54:00+00:00,243.0,11.06,247.0,14.47,13.68,47.59359,-54.27349
2023-05-14 22:04:00+00:00,242.0,10.71,252.0,14.25,13.68,47.59359,-54.27349
2023-05-14 22:14:00+00:00,220.0,8.93,239.0,14.23,13.53,47.59359,-54.27349
2023-05-14 22:24:00+00:00,210.0,10.21,212.0,11.89,13.53,47.59359,-54.27349
2023-05-14 22:34:00+00:00,208.0,8.91,221.0,10.98,13.53,47.59359,-54.27349
2023-05-14 22:44:00+00:00,228.0,7.23,231.0,9.57,13.53,47.59359,-54.27349
2023-05-14 22:54:00+00:00,241.0,9.01,248.0,12.22,13.53,47.59359,-54.27349
2023-05-14 23:04:00+00:00,235.0,7.43,230.0,9.63,13.53,47.59359,-54.27349
2023-05-14 23:14:00+00:00,257.0,11.02,264.0,13.87,12.97,47.59359,-54.27349
2023-05-14 23:24:00+00:00,244.0,7.87,258.0,12.11,12.97,47.59359,-54.27349
2023-05-14 23:34:00+00:00,232.0,7.48,237.0,9.28,12.97,47.59359,-54.27349
2023-05-14 23:44:00+00:00,249.0,7.94,251.0,9.13,12.97,47.59359,-54.27349
2023-05-14 23:54:00+00:00,248.0,8.87,251.0,13.58,12.97,47.59359,-54.27349
